Regional Weather Roundup
Issued by NWS

Home | Current Version | Previous Version | Graphics & Text | Print | Product List | Glossary On
Versions: 1 2 3 4 5 6 7 8 9 10 11 12 13 14 15 16 17 18 19 20 21 22 23 24 25 26 27 28 29 30 31 32 33 34 35 36 37 38 39 40 41 42 43 44 45 46 47 48 49 50
000
ASUS43 KMPX 282110
RWRMN
WEATHER ROUNDUP FOR MINNESOTA
NATIONAL WEATHER SERVICE TWIN CITIES/CHANHASSEN MN
300 PM CST WED JAN 28 2015


NOTE: "FAIR" INDICATES FEW OR NO CLOUDS BELOW 12,000 FEET WITH NO
SIGNIFICANT WEATHER AND/OR OBSTRUCTIONS TO VISIBILITY. N/A MEANS
CURRENT SKY AND/OR WEATHER CONDITIONS ARE NOT AVAILABLE.

MNZ060>063-068>070-282200-
   Twin Cities Metro

CITY           SKY/WX    TMP DP  RH WIND       PRES   REMARKS
TWIN CITIES    CLOUDY    30  26  85 SE12      29.81F FOG     WCI  20
ST PAUL        CLOUDY    30  26  85 SE14      29.83F FOG     WCI  19
CRYSTAL        CLOUDY    31  26  82 SE7       29.80F HAZE    WCI  24
BLAINE         CLOUDY    30  28  93 SE10      29.81F FOG     WCI  21
LAKEVILLE      CLOUDY    28  27  93 SE14G20   29.79F FOG     WCI  17
EDEN PRAIRIE   CLOUDY    31  27  85 SE15      29.78F FOG     WCI  20
SOUTH ST PAUL  CLOUDY    31  27  86 SE7       29.82F FOG     WCI  24
LAKE ELMO      CLOUDY    32  28  86 SE9G17    29.82F FOG     WCI  24
$$
MNZ001>005-007-008-013>017-022>024-027-028-282200-
   Northwest Minnesota

CITY           SKY/WX    TMP DP  RH WIND       PRES   REMARKS
BEMIDJI        CLOUDY    31  30  96 S5        29.76S FOG     WCI  26
HALLOCK        CLOUDY    34  32  93 N3        29.79R FOG
ROSEAU         FOG       34  28  80 CALM      29.78R VSB 3/4
WARROAD        FOG       32  28  86 CALM      29.78R VSB 3/4
THIEF RVR FALL CLOUDY    34  30  86 W6        29.78R WCI  29
CROOKSTON      CLOUDY    34  32  93 W6        29.79R FOG     WCI  29
FOSSTON        CLOUDY    32  30  93 S8        29.76S FOG     WCI  25
DETROIT LAKES  CLOUDY    34  32  93 S8        29.75S FOG     WCI  27
MOORHEAD       CLOUDY    36  36 100 S9        29.78R FOG
PARK RAPIDS    CLOUDY    32  30  92 S8        29.75R FOG     WCI  25
MAHNOMEN       CLOUDY    33  31  93 S8        29.75S FOG     WCI  26
$$
MNZ006-009>011-018-025>026-282200-
   North Central Minnesota

CITY           SKY/WX    TMP DP  RH WIND       PRES   REMARKS
BAUDETTE       CLOUDY    31  29  92 S5        29.77R FOG     WCI  26
FLAG ISLAND    CLOUDY    28  28 100 CALM      29.78S FOG
INTL FALLS     CLOUDY    27  24  89 SE7       29.79F FOG     WCI  19
WASKISH        CLOUDY    30  30 100 CALM      29.77F FOG
BIG FORK       CLOUDY    28  27  93 S6        29.80R FOG     WCI  22
LONGVILLE      CLOUDY    28  28 100 S7        29.77R FOG     WCI  21
GRAND RAPIDS   CLOUDY    27  25  93 S10       29.78S WCI  17
CRANE LAKE     CLOUDY    25  23  93 S3        29.84S
ORR            CLOUDY    25  21  86 CALM      29.79S
COOK           CLOUDY    25  23  93 S6        29.82R FOG     WCI  18
WALKER         CLOUDY    30  28  94 S5        29.77R FOG     WCI  25
$$
MNZ012-019>021-037-282200-
   Northeast Minnesota

CITY           SKY/WX    TMP DP  RH WIND       PRES   REMARKS
DULUTH         CLOUDY    29  22  75 S10       29.80F HAZE    WCI  20
ELY            CLOUDY    27  23  86 S7        29.80S WCI  19
HIBBING        CLOUDY    28  22  78 S6        29.80F WCI  22
EVELETH        CLOUDY    27  23  86 S8        29.81S WCI  18
DULUTH HARBOR  CLOUDY    34  27  75 S9        29.85F WCI  26
TWO HARBORS    CLOUDY    30  25  80 E3        29.82F
SILVER BAY     CLOUDY    28  25  86 E3        29.83F
GRAND MARAIS     N/A     31  26  82 E7        29.88F WCI  24
G MARAIS ARPRT   N/A     25  21  86 SE6       29.82F FOG     WCI  18
$$
MNZ029>031-032-039>041-046>048-054>057-064-282200-
   West Central Minnesota

CITY           SKY/WX    TMP DP  RH WIND       PRES   REMARKS
FERGUS FALLS   CLOUDY    34  30  86 S12       29.78R FOG     WCI  25
WHEATON        CLOUDY    32  30  93 SE7       29.78R FOG     WCI  26
MORRIS         CLOUDY    34  32  93 SE8       29.74R FOG     WCI  27
ALEXANDRIA     CLOUDY    31  30  96 SE13      29.76R FOG     WCI  21
ELBOW LAKE     CLOUDY    32  31  97 S12       29.74F FOG     WCI  23
WADENA         CLOUDY    30  28  93 S10       29.75S FOG     WCI  21
GLENWOOD       CLOUDY    30  30 100 SE10      29.76S FOG     WCI  21
APPLETON       CLOUDY    36  32  87 SE8       29.73F FOG
BENSON         CLOUDY    34  30  86 S10       29.75F FOG     WCI  26
ORTONVILLE     CLOUDY    34  30  86 SE7       29.74R FOG     WCI  28
MADISON        PTSUNNY   37  36  93 SE9       29.72F FOG
WILLMAR        CLOUDY    34  30  86 SE8       29.77S FOG     WCI  27
$$
MNZ033>034-036-042>043-049>051-058-059-282200-
   Central Minnesota

CITY           SKY/WX    TMP DP  RH WIND       PRES   REMARKS
ST CLOUD       CLOUDY    29  26  89 SE12      29.79F FOG     WCI  19
SAUK CENTRE    CLOUDY    30  29  96 SE10      29.77F FOG     WCI  21
PAYNESVILLE    CLOUDY    28  28  97 E7        29.77F FOG     WCI  21
AITKIN         CLOUDY    30  25  80 S12       29.77F HAZE    WCI  21
PINE RIVER     CLOUDY    28  28 100 SE10      29.81S FOG     WCI  19
BRAINERD       CLOUDY    29  26  89 SE12      29.78F FOG     WCI  19
STAPLES        CLOUDY    30  28  93 S9        29.76F FOG     WCI  22
LONG PRAIRIE   CLOUDY    30  28  93 SE13      29.77S FOG     WCI  20
LITTLE FALLS   CLOUDY    30  27  86 SE8       29.79F FOG     WCI  23
LITCHFIELD     CLOUDY    32  32 100 SE8       29.78S FOG     WCI  25
BUFFALO        CLOUDY    30  27  87 SE5       29.81S FOG     WCI  25
MAPLE LAKE     CLOUDY    31  29  92 SE5       29.80F FOG     WCI  26
$$
MNZ037-044-045-052-053-282200-
   East Central Minnesota

CITY           SKY/WX    TMP DP  RH WIND       PRES   REMARKS
PRINCETON      CLOUDY    30  27  86 SE7       29.81F HAZE    WCI  23
MORA           CLOUDY    28  23  80 S6        29.84F WCI  22
CAMBRIDGE      CLOUDY    30  23  74 SE8       29.81S HAZE    WCI  23
RUSH CITY      CLOUDY    30  26  84 SE6       29.83F WCI  24
MOOSE LAKE     CLOUDY    30  25  80 S6        29.80F HAZE    WCI  24
HINCKLEY       CLOUDY    30  27  86 S7        29.82F FOG     WCI  23
CLOQUET        CLOUDY    28  23  80 S9G16     29.80F WCI  20
MCGREGOR       CLOUDY    30  27  86 S12       29.80F WCI  21
$$
MNZ071>073-080-081-089-090-097-098-282200-
   Southwest Minnesota

CITY           SKY/WX    TMP DP  RH WIND       PRES   REMARKS
MONTEVIDEO     CLOUDY    34  34 100 S8        29.75F FOG     WCI  27
GRANITE FALLS  CLOUDY    33  31  93 SE7       29.75F FOG     WCI  27
CANBY          CLOUDY    37  33  84 SE6       29.73S FOG
MARSHALL       CLOUDY    34  28  80 SE7       29.74R WCI  28
REDWOOD FALLS  CLOUDY    34  31  88 SE8       29.75S FOG     WCI  27
OLIVIA         CLOUDY    32  32 100 SE10      29.74F FOG     WCI  24
PIPESTONE      CLOUDY    36  34  93 S6        29.68S FOG
WINDOM         CLOUDY    34  30  86 S8        29.71R FOG     WCI  27
WORTHINGTON    CLOUDY    32  28  86 S12       29.70R WCI  23
JACKSON        CLOUDY    32  32 100 SE12      29.72S FOG     WCI  23
TRACY          CLOUDY    34  32  92 S6        29.72S FOG     WCI  29
SLAYTON        CLOUDY    32  31  96 CALM      29.70F FOG
$$
MNZ065>067-074>077-082>085-091>093-282200-
   South Central Minnesota

CITY           SKY/WX    TMP DP  RH WIND       PRES   REMARKS
MANKATO        CLOUDY    34  28  80 SE14      29.75F WCI  24
NEW ULM        CLOUDY    34  30  86 SE8       29.75R FOG     WCI  27
ST JAMES       CLOUDY    34  30  86 SE15G22   29.73F FOG     WCI  24
FAIRMONT       CLOUDY    34  28  80 S14       29.72F WCI  24
GLENCOE        CLOUDY    33  32  96 SE7       29.77S FOG     WCI  26
FARIBAULT      CLOUDY    34  28  80 SE15G21   29.78F FOG     WCI  24
OWATONNA       PTSUNNY   34  28  80 SE13      29.77F FOG     WCI  25
WASECA         CLOUDY    32  30  93 SE16      29.77F FOG     WCI  21
ALBERT LEA     CLOUDY    34  32  93 SE14      29.75F FOG     WCI  24
$$
MNZ078>079-086>088-094>096-282200-
   Southeast Minnesota

CITY           SKY/WX    TMP DP  RH WIND       PRES   REMARKS
ROCHESTER      CLOUDY    33  28  81 SE18      29.79F HAZE    WCI  22
RED WING       CLOUDY    30  27  86 SE15      29.82F HAZE    WCI  19
STANTON        CLOUDY    32  28  86 SE9G18    29.79F WCI  24
DODGE CENTER   CLOUDY    34  30  86 SE14      29.78F FOG     WCI  24
WINONA         CLOUDY    34  30  86 SE13      29.86F HAZE    WCI  25
AUSTIN         CLOUDY    34  30  86 SE9G16    29.77F FOG     WCI  26
PRESTON        CLOUDY    33  27  80 SE18      29.80F WCI  22
$$
ABBREVIATIONS USED IN REMARKS
   TC - TEMPERATURES IN CELSIUS
  WCI - WIND CHILL INDEX
   HX - HEAT INDEX
  VSB - VISIBILITY
$$



USA.gov is the U.S. government's official web portal to all federal, state and local government web resources and services.